Probability
0 0 0 0 0 0 0 0 0 0 0 0 0 0 0 0 0 0 0 0 0 0 0 0 3 3 3 3 6 6 6 10 3 3 6 6 6 10
0 0 0 0 0 0 0 0 0 0 0 0 0 0 0 0 0 0 0 0 0 0 0 0 0 3 3 3 3 3 3 6 10 6 3 6 6 3
0 0 0 0 0 0 0 0 0 0 0 0 0 0 0 0 0 0 0 0 0 0 0 0 0 3 3 3 3 0 0 0 0 3 3 0 0 0
0 0 0 0 0 0 0 0 0 0 0 0 0 0 0 0 0 0 0 0 0 0 0 0 0 0 0 0 0 0 0 0 0 0 0 3 0 0
0 0 0 0 0 0 0 0 0 0 0 0 0 0 0 0 0 0 0 0 0 0 0 0 0 0 0 0 0 0 0 0 0 0 0 0 0 0
0 0 0 0 0 0 0 0 0 0 0 0 0 0 0 0 0 0 0 0 0 0 0 0 0 0 0 0 0 0 0 0 0 0 0 0 0 0
0 0 0 0 0 0 0 0 0 0 0 0 0 0 0 0 0 0 0 0 0 0 0 0 0 0 0 0 0 0 0 0 0 0 0 0 0 0
0 0 0 0 0 0 0 0 0 0 0 0 0 0 0 0 0 0 0 0 0 0 0 0 0 0 0 0 0 0 0 0 0 0 0 0 0 0
0 0 0 0 0 0 0 0 0 0 0 0 0 0 0 0 0 0 0 0 0 0 0 0 0 0 0 0 0 0 0 0 0 0 0 0 0 0
0 0 0 0 0 0 0 0 0 0 0 0 0 0 0 0 0 0 0 0 0 0 0 0 0 0 0 0 0 0 0 0 0 0 0 0 0 0
0 0 0 0 0 0 0 0 0 0 0 0 0 0 0 0 0 0 0 0 0 0 0 0 0 0 0 0 0 0 0 0 0 0 0 0 0 0
0 0 0 0 0 0 0 0 0 0 0 0 0 0 0 0 0 0 0 0 0 0 0 0 0 0 0 0 0 0 0 0 0 0 0 0 0 0
0 0 0 0 0 0 0 0 0 0 0 0 0 0 0 0 0 0 0 0 0 0 0 0 0 0 0 0 0 0 0 0 0 0 0 0 0 0
0 0 0 0 0 0 0 0 0 0 0 0 0 0 0 0 0 0 0 0 0 0 0 0 0 0 0 0 0 0 0 0 0 0 0 0 0 0
0 0 0 0 0 0 0 0 0 0 0 0 0 0 0 0 0 0 0 0 0 0 0 0 0 0 0 0 0 0 0 0 0 0 0 0 0 0
0 0 0 0 0 0 0 0 0 0 0 0 0 0 0 0 0 0 0 0 0 0 0 0 0 0 0 0 0 0 0 0 0 0 0 0 0 0
0 0 0 0 0 0 0 0 0 0 0 0 0 0 0 0 0 0 0 0 0 0 0 0 0 0 0 0 0 0 0 0 0 0 0 0 0 0
0 0 0 0 0 0 0 0 0 0 0 0 0 0 0 0 0 0 0 0 0 0 0 0 0 0 0 0 0 0 0 0 0 0 0 0 0 0
0 0 0 0 0 0 0 0 0 0 0 0 0 0 0 0 0 0 0 0 0 0 0 0 0 0 0 0 0 0 0 0 0 0 0 0 0 0
0 0 0 0 0 0 0 0 0 0 0 0 0 0 0 0 0 0 0 0 0 0 0 0 0 0 0 0 0 0 0 0 0 0 0 0 0 0
0 0 0 0 0 0 0 0 0 0 0 0 0 0 0 0 0 0 0 0 0 0 0 0 0 0 0 0 0 0 0 0 0 0 0 0 0 0
0 0 0 0 0 0 0 0 0 0 0 0 0 0 0 0 0 0 0 0 0 0 0 0 0 0 0 0 0 0 0 0 0 0 0 0 0 0
0 0 0 0 0 0 0 0 0 0 0 0 0 0 0 0 0 0 0 0 0 0 0 0 0 0 0 0 0 0 0 0 0 0 0 0 0 0
Height
5784 5784 5783 5782 5782 5781 5781 5780 5780 5779 5779 5779 5780 5781 5782 5782 5783 5783 5784 5784 5784 5784 5784 5784 5783 5783 5782 5781 5781 5780 5779 5778 5777 5776 5774 5773 5772 5772
5779 5778 5778 5777 5776 5776 5776 5775 5774 5774 5774 5774 5775 5775 5776 5777 5778 5778 5778 5779 5779 5779 5779 5778 5778 5777 5776 5776 5775 5774 5773 5772 5770 5769 5768 5767 5765 5764
5773 5773 5772 5771 5771 5771 5770 5770 5769 5769 5769 5769 5770 5771 5772 5772 5773 5773 5774 5774 5773 5773 5773 5773 5772 5772 5771 5770 5769 5768 5766 5765 5763 5762 5761 5760 5758 5757
5768 5767 5766 5766 5765 5765 5765 5765 5764 5764 5764 5765 5765 5767 5767 5768 5768 5769 5769 5769 5768 5768 5768 5767 5767 5766 5765 5764 5763 5761 5760 5758 5757 5756 5754 5753 5752 5750
5763 5762 5761 5761 5760 5760 5760 5759 5759 5759 5760 5760 5761 5762 5763 5763 5763 5764 5763 5763 5763 5763 5762 5762 5762 5761 5760 5758 5757 5755 5754 5752 5751 5749 5748 5746 5745 5743
5757 5757 5756 5756 5755 5755 5755 5754 5754 5755 5755 5755 5756 5757 5757 5758 5758 5758 5758 5758 5758 5757 5757 5757 5756 5755 5754 5753 5751 5749 5748 5746 5745 5743 5741 5740 5738 5736
5752 5751 5751 5751 5750 5750 5750 5749 5749 5750 5750 5750 5751 5751 5752 5752 5753 5753 5753 5753 5752 5752 5752 5751 5751 5750 5748 5747 5745 5743 5741 5740 5738 5737 5735 5733 5731 5728
5747 5747 5746 5746 5745 5745 5744 5744 5744 5744 5745 5745 5746 5746 5747 5747 5747 5747 5747 5747 5747 5747 5746 5746 5745 5744 5743 5741 5739 5737 5735 5733 5732 5730 5728 5726 5724 5722
5742 5742 5741 5741 5740 5740 5739 5739 5739 5739 5739 5740 5740 5740 5741 5741 5741 5741 5741 5741 5741 5741 5740 5740 5739 5738 5736 5735 5733 5731 5729 5727 5725 5724 5722 5720 5717 5715
5736 5736 5735 5735 5735 5734 5734 5734 5734 5733 5733 5734 5734 5734 5735 5735 5735 5735 5735 5735 5735 5735 5734 5734 5733 5731 5730 5728 5726 5724 5723 5721 5719 5717 5715 5713 5711 5709
5730 5729 5729 5728 5728 5728 5728 5728 5728 5727 5727 5727 5728 5728 5728 5729 5729 5729 5729 5729 5729 5728 5728 5727 5726 5725 5724 5722 5720 5718 5717 5715 5713 5711 5708 5706 5704 5703
5723 5723 5722 5722 5721 5721 5721 5721 5721 5721 5721 5721 5721 5722 5722 5722 5722 5722 5722 5722 5722 5722 5721 5720 5720 5718 5717 5716 5714 5712 5710 5708 5706 5704 5702 5700 5698 5696
5716 5715 5715 5715 5714 5714 5714 5714 5714 5714 5714 5714 5715 5715 5715 5715 5715 5715 5715 5715 5715 5714 5714 5713 5712 5711 5710 5709 5707 5705 5704 5702 5700 5698 5696 5694 5692 5690
5709 5708 5708 5707 5707 5706 5706 5706 5706 5706 5707 5707 5708 5708 5708 5708 5708 5708 5708 5707 5707 5707 5706 5706 5705 5704 5703 5702 5701 5699 5697 5695 5693 5691 5689 5687 5685 5683
5701 5700 5700 5699 5698 5698 5698 5698 5698 5698 5699 5699 5700 5700 5701 5701 5700 5700 5700 5700 5699 5699 5698 5698 5697 5696 5695 5695 5693 5692 5690 5688 5686 5684 5682 5680 5679 5677
5692 5692 5691 5691 5690 5690 5690 5690 5690 5690 5690 5691 5691 5692 5692 5692 5692 5692 5692 5692 5691 5691 5691 5690 5689 5688 5687 5686 5685 5684 5682 5681 5679 5677 5675 5673 5671 5670
5684 5683 5682 5682 5682 5681 5681 5681 5681 5682 5682 5682 5682 5683 5683 5683 5684 5684 5684 5683 5683 5683 5683 5682 5681 5680 5679 5678 5677 5676 5674 5672 5670 5669 5667 5665 5664 5662
5675 5674 5674 5673 5673 5672 5672 5672 5673 5673 5673 5673 5674 5674 5674 5675 5675 5675 5675 5675 5674 5674 5674 5674 5673 5672 5671 5670 5669 5667 5665 5664 5662 5660 5659 5657 5656 5655
5666 5665 5664 5664 5664 5663 5663 5663 5664 5664 5664 5664 5665 5665 5665 5666 5666 5666 5666 5666 5666 5665 5665 5665 5664 5663 5662 5662 5660 5659 5657 5655 5654 5652 5650 5649 5648 5647
5656 5656 5655 5654 5654 5654 5654 5654 5654 5654 5655 5655 5655 5655 5656 5656 5657 5657 5657 5657 5657 5656 5656 5656 5655 5654 5653 5653 5651 5649 5648 5647 5645 5644 5642 5641 5639 5638
5645 5645 5645 5644 5644 5644 5644 5644 5644 5645 5645 5645 5645 5646 5646 5646 5647 5647 5648 5647 5647 5647 5647 5646 5645 5644 5643 5642 5641 5640 5638 5637 5636 5635 5634 5632 5631 5630
5634 5634 5634 5634 5634 5634 5634 5634 5634 5635 5635 5635 5635 5636 5636 5637 5637 5637 5637 5637 5637 5637 5637 5636 5635 5634 5634 5633 5632 5631 5629 5628 5626 5625 5624 5623 5622 5621
5624 5623 5623 5623 5623 5623 5623 5624 5624 5625 5625 5625 5626 5626 5626 5627 5627 5627 5627 5627 5627 5627 5627 5626 5625 5624 5623 5622 5622 5621 5620 5619 5617 5616 5615 5613 5612 5611
Wind_Speed
17 17 17 17 17 18 18 17 17 17 17 17 18 18 18 18 18 18 19 19 18 18 19 19 19 19 19 20 20 20 21 21 22 22 23 23 23 23
17 17 17 17 17 17 17 17 17 17 16 16 17 17 18 18 17 18 18 19 19 18 19 19 19 19 20 20 21 21 21 22 22 22 22 22 23 23
17 16 16 17 17 17 17 17 16 16 16 16 17 16 16 16 17 18 19 20 20 20 20 20 19 19 19 20 20 21 22 22 22 22 22 23 23 24
17 17 16 16 17 17 17 17 16 15 15 15 16 16 17 17 17 18 18 20 20 19 20 20 19 19 19 20 20 21 21 22 22 22 23 22 23 24
17 16 16 16 17 17 18 17 17 16 16 16 17 17 17 18 18 18 18 18 18 18 18 18 18 19 19 19 20 21 21 21 21 22 22 23 23 24
17 17 17 16 16 16 17 17 18 17 17 17 18 18 19 19 19 18 18 19 19 18 18 18 18 18 19 19 20 20 21 21 21 22 22 23 24 24
17 17 17 17 16 17 17 17 17 18 18 18 18 18 18 19 19 19 19 18 19 18 18 18 19 19 19 19 20 20 21 21 22 22 22 23 23 23
17 17 17 17 17 17 17 17 18 18 19 19 19 19 19 19 19 19 20 20 20 20 20 20 20 20 20 20 21 20 21 21 22 22 22 23 23 23
19 18 18 18 17 18 18 19 18 18 18 19 19 19 20 20 20 20 20 20 20 21 21 21 21 21 21 22 22 21 21 21 22 22 23 23 23 23
20 20 19 19 19 19 19 19 19 19 19 19 19 19 20 21 21 21 21 21 21 21 21 21 22 21 21 22 22 22 22 22 22 23 23 23 23 23
22 21 21 21 21 21 20 20 20 20 20 20 20 20 20 20 21 21 21 22 21 21 21 21 21 21 21 22 22 22 22 22 23 23 23 23 22 22
22 23 23 23 22 22 21 22 22 21 22 22 21 21 21 21 21 22 22 22 22 22 22 22 22 22 21 22 22 22 22 23 22 22 22 22 22 23
23 23 24 24 24 23 23 23 23 23 23 23 23 23 22 22 22 22 22 22 22 22 22 22 22 22 22 22 22 22 22 22 23 23 23 23 22 22
25 24 24 24 24 24 24 24 24 24 25 25 25 24 24 24 23 23 23 23 23 23 23 23 23 23 23 23 23 23 23 23 23 24 24 23 23 23
25 25 26 26 26 25 25 25 25 25 25 25 25 25 25 25 25 24 24 24 24 24 24 24 24 24 24 25 25 25 25 25 25 25 25 24 24 23
26 26 26 27 27 27 26 27 26 26 26 26 26 26 26 26 27 27 26 25 25 25 25 25 25 25 25 25 26 26 26 26 26 26 26 25 25 24
27 26 26 27 28 28 28 28 28 27 27 27 27 27 27 27 27 27 27 27 26 26 26 26 26 26 26 26 26 27 27 27 27 27 26 26 26 25
28 27 27 27 28 28 28 29 29 28 28 28 28 28 28 27 28 28 28 27 27 27 27 27 27 26 26 27 27 27 27 27 27 28 28 27 27 27
29 29 28 28 29 29 30 30 30 30 30 29 29 29 29 29 28 28 28 28 28 28 28 28 28 28 28 28 28 28 27 27 28 28 28 28 27 27
31 30 29 29 29 29 30 31 31 31 31 31 31 30 30 30 30 29 29 29 29 29 29 29 29 29 29 29 29 29 28 28 28 28 27 27 27 27
32 32 31 30 30 30 30 31 31 31 31 32 32 32 31 30 30 30 30 30 30 30 31 31 30 30 30 30 29 29 29 29 28 28 28 28 28 27
32 32 32 31 30 30 31 31 31 31 31 31 31 31 31 30 30 30 30 30 31 31 31 31 32 31 31 30 30 30 30 30 29 29 29 29 29 28
32 32 32 31 31 30 31 31 31 31 30 31 30 30 31 31 30 30 30 31 31 32 32 31 32 32 31 31 30 30 30 30 30 30 29 29 29 29
Wind_Direction
279 277 275 272 271 271 271 271 270 268 265 261 258 256 256 257 260 262 261 264 265 265 267 270 272 274 275 274 275 277 278 278 279 278 276 273 272 269
280 278 276 274 271 270 269 271 271 269 265 259 255 256 258 259 261 263 262 265 267 268 268 270 273 275 277 276 275 277 279 279 278 277 276 275 272 272
281 279 277 273 270 268 268 268 269 268 264 257 254 256 261 264 264 264 263 267 270 271 271 272 274 277 279 278 277 278 279 278 277 276 277 275 275 275
280 278 278 275 270 266 265 265 267 267 264 258 255 256 261 264 266 266 266 266 269 270 271 272 275 277 278 280 280 280 280 280 278 277 277 277 277 277
279 276 274 276 273 268 266 265 265 265 263 259 256 257 260 263 265 266 266 267 267 270 272 273 275 277 279 281 281 280 280 280 278 279 280 280 280 279
279 274 272 272 272 270 268 267 265 264 262 261 260 261 262 261 264 266 265 266 268 270 271 272 275 278 281 283 282 281 280 279 279 281 281 281 282 282
279 276 273 272 272 273 272 270 267 265 264 263 263 262 263 263 264 266 267 268 268 270 271 272 275 280 284 285 285 283 282 281 281 282 283 282 283 282
278 276 275 274 273 274 273 272 271 268 265 263 262 261 263 265 267 268 267 267 269 270 271 273 276 279 283 286 286 286 285 284 283 283 284 285 285 283
274 275 274 273 273 273 274 272 271 270 268 265 262 262 264 266 268 268 268 268 268 270 271 272 275 278 282 285 286 285 285 284 285 285 285 286 286 284
273 273 273 272 273 273 272 269 268 269 268 264 263 266 266 267 268 268 267 268 270 271 272 274 275 278 280 283 284 286 285 285 286 288 288 287 286 284
274 272 272 272 273 272 271 269 266 266 267 264 264 267 268 267 267 268 268 268 270 271 273 274 275 278 281 282 283 284 286 286 288 289 289 288 285 284
272 272 272 271 271 272 272 270 267 266 266 264 265 268 267 266 267 269 269 269 270 271 272 274 276 278 279 281 281 283 285 287 288 289 289 288 286 285
273 273 273 274 273 272 272 271 268 265 264 264 265 266 266 267 268 270 270 269 270 272 274 274 276 278 279 280 281 282 283 285 287 288 288 288 287 286
274 273 274 275 273 272 272 271 269 265 263 264 265 265 266 267 268 269 269 270 272 273 275 276 276 276 278 279 280 281 282 284 287 288 288 287 286 285
277 275 274 274 274 272 272 271 269 266 265 265 265 265 266 267 267 266 268 270 271 273 274 276 276 276 277 278 280 280 282 283 286 287 287 286 285 284
277 277 276 274 274 273 271 270 268 267 266 266 266 266 266 266 267 268 269 270 270 270 272 275 277 277 277 278 279 280 281 282 283 284 285 285 285 283
278 277 276 275 274 271 269 268 267 267 268 267 267 267 267 266 266 268 269 271 270 270 271 274 277 278 278 279 280 281 281 281 281 282 282 282 282 283
276 276 277 276 273 271 269 267 266 267 268 268 267 266 266 265 266 268 270 270 269 269 270 273 276 277 279 280 281 281 281 281 281 281 281 281 282 283
275 275 276 275 273 271 268 266 266 267 266 266 266 266 265 264 265 267 269 269 268 269 269 271 273 276 277 279 280 280 280 280 281 281 281 281 280 280
274 274 274 273 271 270 269 266 265 266 266 266 266 265 265 265 264 266 268 268 268 269 269 270 272 274 276 277 278 279 280 280 280 280 281 281 281 280
274 273 272 271 270 271 269 266 265 265 266 267 266 265 264 265 265 266 267 268 267 268 270 271 273 274 276 276 276 277 278 279 279 278 279 279 280 280
273 272 272 271 270 269 267 266 266 266 266 265 265 264 264 264 266 267 267 268 268 269 271 273 274 275 276 276 277 277 277 278 279 278 278 278 279 279
273 272 272 271 270 269 267 265 264 264 265 265 264 264 263 263 265 267 268 269 270 270 271 272 274 275 275 275 275 276 276 277 277 278 277 278 279 280